contact:dominique.lefevre@mio.osupytheas.fr, maurice.libes@osupytheas.fr, didier.mallarino@osupytheas.fr
Project:EMSO http://www.emso-fr.org/EMSO-France
Depth: 2436.0 m
Title:EMSO Ligure Ouest : Data MII capteur MICROCAT
DateTime_Computer,Latitude,Longitude,Temperature,Conductivity,Pressure,DateTime_Instrument
DateTime_Computer,Latitude,Longitude,degC,S m-1,dbar,DateTime_Instrument
2022-06-22T00:02:56Z,42.805,6.029,13.3062,4.60099,2470.637,2022-6-22T02:04:40Z
2022-06-22T00:05:59Z,42.805,6.029,13.3058,4.60147,2470.637,2022-6-22T02:07:43Z
2022-06-22T00:09:02Z,42.805,6.029,13.3063,4.60102,2470.637,2022-6-22T02:10:46Z
2022-06-22T00:12:05Z,42.805,6.029,13.3054,4.60112,2470.661,2022-6-22T02:13:49Z
2022-06-22T00:15:08Z,42.805,6.029,13.3079,4.60149,2470.6,2022-6-22T02:16:52Z
2022-06-22T00:18:11Z,42.805,6.029,13.3058,4.60139,2470.624,2022-6-22T02:19:55Z
2022-06-22T00:21:14Z,42.805,6.029,13.3037,4.60123,2470.646,2022-6-22T02:22:59Z
2022-06-22T00:24:18Z,42.805,6.029,13.3068,4.60123,2470.646,2022-6-22T02:26:02Z
2022-06-22T00:27:21Z,42.805,6.029,13.3077,4.60069,2470.661,2022-6-22T02:29:05Z
2022-06-22T00:30:24Z,42.805,6.029,13.3024,4.60120,2470.661,2022-6-22T02:32:08Z
2022-06-22T00:33:27Z,42.805,6.029,13.3054,4.60157,2470.591,2022-6-22T02:35:11Z
2022-06-22T00:36:30Z,42.805,6.029,13.3075,4.60126,2470.637,2022-6-22T02:38:14Z
2022-06-22T00:39:33Z,42.805,6.029,13.3044,4.60099,2470.67,2022-6-22T02:41:17Z
2022-06-22T00:42:36Z,42.805,6.029,13.3058,4.60132,2470.684,2022-6-22T02:44:20Z
2022-06-22T00:45:39Z,42.805,6.029,13.3080,4.60122,2470.661,2022-6-22T02:47:24Z
2022-06-22T00:48:43Z,42.805,6.029,13.3076,4.60137,2470.67,2022-6-22T02:50:27Z
2022-06-22T00:51:46Z,42.805,6.029,13.3050,4.60097,2470.637,2022-6-22T02:53:30Z
2022-06-22T00:54:49Z,42.805,6.029,13.3042,4.60124,2470.637,2022-6-22T02:56:33Z
2022-06-22T00:57:52Z,42.805,6.029,13.3057,4.60110,2470.661,2022-6-22T02:59:36Z
2022-06-22T01:00:55Z,42.805,6.029,13.3058,4.60107,2470.624,2022-6-22T03:02:39Z
2022-06-22T01:03:58Z,42.805,6.029,13.3077,4.60097,2470.637,2022-6-22T03:05:42Z
2022-06-22T01:07:01Z,42.805,6.029,13.3069,4.60110,2470.637,2022-6-22T03:08:45Z
2022-06-22T01:10:04Z,42.805,6.029,13.3085,4.60137,2470.646,2022-6-22T03:11:48Z
2022-06-22T01:13:08Z,42.805,6.029,13.3069,4.60129,2470.624,2022-6-22T03:14:52Z
2022-06-22T01:16:11Z,42.805,6.029,13.3035,4.60114,2470.684,2022-6-22T03:17:55Z
2022-06-22T01:19:14Z,42.805,6.029,13.3038,4.60131,2470.6,2022-6-22T03:20:58Z
2022-06-22T01:22:17Z,42.805,6.029,13.3069,4.60125,2470.646,2022-6-22T03:24:01Z
2022-06-22T01:25:20Z,42.805,6.029,13.3067,4.60144,2470.67,2022-6-22T03:27:04Z
2022-06-22T01:28:23Z,42.805,6.029,13.3069,4.60126,2470.646,2022-6-22T03:30:07Z
2022-06-22T01:31:26Z,42.805,6.029,13.3079,4.60134,2470.646,2022-6-22T03:33:10Z
2022-06-22T01:34:29Z,42.805,6.029,13.3069,4.60150,2470.67,2022-6-22T03:36:13Z
2022-06-22T01:37:32Z,42.805,6.029,13.3038,4.60109,2470.67,2022-6-22T03:39:17Z
2022-06-22T01:40:36Z,42.805,6.029,13.3058,4.60102,2470.67,2022-6-22T03:42:20Z
2022-06-22T01:43:39Z,42.805,6.029,13.3063,4.60098,2470.661,2022-6-22T03:45:23Z
2022-06-22T01:46:42Z,42.805,6.029,13.3051,4.60119,2470.661,2022-6-22T03:48:26Z
2022-06-22T01:49:45Z,42.805,6.029,13.3048,4.60076,2470.684,2022-6-22T03:51:29Z
2022-06-22T01:52:48Z,42.805,6.029,13.3063,4.60121,2470.646,2022-6-22T03:54:32Z
2022-06-22T01:55:51Z,42.805,6.029,13.3036,4.60112,2470.624,2022-6-22T03:57:35Z
2022-06-22T01:58:54Z,42.805,6.029,13.3042,4.60137,2470.684,2022-6-22T04:00:38Z
2022-06-22T02:01:57Z,42.805,6.029,13.3048,4.60153,2470.661,2022-6-22T04:03:42Z
2022-06-22T02:05:01Z,42.805,6.029,13.3061,4.60151,2470.646,2022-6-22T04:06:45Z
2022-06-22T02:08:04Z,42.805,6.029,13.3075,4.60164,2470.67,2022-6-22T04:09:48Z
2022-06-22T02:11:07Z,42.805,6.029,13.3095,4.60133,2470.684,2022-6-22T04:12:51Z
2022-06-22T02:14:10Z,42.805,6.029,13.3087,4.60077,2470.684,2022-6-22T04:15:54Z
2022-06-22T02:17:13Z,42.805,6.029,13.3063,4.60117,2470.661,2022-6-22T04:18:57Z
2022-06-22T02:20:16Z,42.805,6.029,13.3081,4.60122,2470.624,2022-6-22T04:22:00Z
2022-06-22T02:23:19Z,42.805,6.029,13.3084,4.60106,2470.661,2022-6-22T04:25:03Z
2022-06-22T02:26:22Z,42.805,6.029,13.3076,4.60097,2470.684,2022-6-22T04:28:06Z
2022-06-22T02:29:26Z,42.805,6.029,13.3043,4.60121,2470.67,2022-6-22T04:31:10Z
2022-06-22T02:32:29Z,42.805,6.029,13.3085,4.60075,2470.646,2022-6-22T04:34:13Z
2022-06-22T02:35:32Z,42.805,6.029,13.3051,4.60121,2470.684,2022-6-22T04:37:16Z
2022-06-22T02:38:35Z,42.805,6.029,13.3054,4.60116,2470.661,2022-6-22T04:40:19Z
2022-06-22T02:41:38Z,42.805,6.029,13.3046,4.60085,2470.661,2022-6-22T04:43:22Z
2022-06-22T02:44:41Z,42.805,6.029,13.3023,4.60107,2470.684,2022-6-22T04:46:25Z
2022-06-22T02:47:44Z,42.805,6.029,13.3046,4.60150,2470.661,2022-6-22T04:49:28Z
2022-06-22T02:50:47Z,42.805,6.029,13.3046,4.60093,2470.67,2022-6-22T04:52:31Z
2022-06-22T02:53:50Z,42.805,6.029,13.3067,4.60161,2470.684,2022-6-22T04:55:35Z
2022-06-22T02:56:54Z,42.805,6.029,13.3079,4.60119,2470.684,2022-6-22T04:58:38Z
2022-06-22T02:59:57Z,42.805,6.029,13.3077,4.60137,2470.646,2022-6-22T05:01:41Z
2022-06-22T03:03:00Z,42.805,6.029,13.3071,4.60125,2470.661,2022-6-22T05:04:44Z
2022-06-22T03:06:03Z,42.805,6.029,13.3056,4.60140,2470.646,2022-6-22T05:07:47Z
2022-06-22T03:09:06Z,42.805,6.029,13.3054,4.60125,2470.707,2022-6-22T05:10:50Z
2022-06-22T03:12:09Z,42.805,6.029,13.3080,4.60119,2470.67,2022-6-22T05:13:53Z
2022-06-22T03:15:12Z,42.805,6.029,13.3075,4.60120,2470.661,2022-6-22T05:16:56Z
2022-06-22T03:18:15Z,42.805,6.029,13.3048,4.60129,2470.684,2022-6-22T05:20:00Z
2022-06-22T03:21:19Z,42.805,6.029,13.3069,4.60139,2470.661,2022-6-22T05:23:03Z
2022-06-22T03:24:22Z,42.805,6.029,13.3044,4.60114,2470.684,2022-6-22T05:26:06Z
2022-06-22T03:27:25Z,42.805,6.029,13.3067,4.60129,2470.637,2022-6-22T05:29:09Z
2022-06-22T03:30:28Z,42.805,6.029,13.3064,4.60115,2470.614,2022-6-22T05:32:12Z
2022-06-22T03:33:31Z,42.805,6.029,13.3060,4.60089,2470.651,2022-6-22T05:35:15Z
2022-06-22T03:36:34Z,42.805,6.029,13.3051,4.60105,2470.646,2022-6-22T05:38:18Z
2022-06-22T03:39:37Z,42.805,6.029,13.3056,4.60123,2470.661,2022-6-22T05:41:21Z
2022-06-22T03:42:40Z,42.805,6.029,13.3074,4.60116,2470.67,2022-6-22T05:44:24Z
2022-06-22T03:45:44Z,42.805,6.029,13.3038,4.60123,2470.637,2022-6-22T05:47:28Z
2022-06-22T03:48:47Z,42.805,6.029,13.3070,4.60070,2470.646,2022-6-22T05:50:31Z
2022-06-22T03:51:50Z,42.805,6.029,13.3053,4.60093,2470.646,2022-6-22T05:53:34Z
2022-06-22T03:54:53Z,42.805,6.029,13.3051,4.60063,2470.614,2022-6-22T05:56:37Z
2022-06-22T03:57:56Z,42.805,6.029,13.3076,4.60067,2470.646,2022-6-22T05:59:40Z
2022-06-22T04:00:59Z,42.805,6.029,13.3045,4.60090,2470.637,2022-6-22T06:02:43Z
2022-06-22T04:04:02Z,42.805,6.029,13.3041,4.60120,2470.661,2022-6-22T06:05:46Z
2022-06-22T04:07:05Z,42.805,6.029,13.3036,4.60075,2470.646,2022-6-22T06:08:49Z
2022-06-22T04:10:09Z,42.805,6.029,13.3053,4.60087,2470.637,2022-6-22T06:11:53Z
2022-06-22T04:13:12Z,42.805,6.029,13.3029,4.60079,2470.624,2022-6-22T06:14:56Z
2022-06-22T04:16:15Z,42.805,6.029,13.3041,4.60094,2470.624,2022-6-22T06:17:59Z
2022-06-22T04:19:18Z,42.805,6.029,13.3046,4.60111,2470.661,2022-6-22T06:21:02Z
2022-06-22T04:22:21Z,42.805,6.029,13.3045,4.60120,2470.646,2022-6-22T06:24:05Z
2022-06-22T04:25:24Z,42.805,6.029,13.3076,4.60114,2470.661,2022-6-22T06:27:08Z
2022-06-22T04:28:27Z,42.805,6.029,13.3074,4.60068,2470.614,2022-6-22T06:30:11Z
2022-06-22T04:31:30Z,42.805,6.029,13.3068,4.60097,2470.637,2022-6-22T06:33:14Z
2022-06-22T04:34:33Z,42.805,6.029,13.3051,4.60076,2470.646,2022-6-22T06:36:18Z
2022-06-22T04:37:37Z,42.805,6.029,13.3048,4.60075,2470.614,2022-6-22T06:39:21Z
2022-06-22T04:40:40Z,42.805,6.029,13.3054,4.60060,2470.624,2022-6-22T06:42:24Z
2022-06-22T04:43:43Z,42.805,6.029,13.3025,4.60110,2470.624,2022-6-22T06:45:27Z
2022-06-22T04:46:46Z,42.805,6.029,13.3034,4.60081,2470.624,2022-6-22T06:48:30Z
2022-06-22T04:49:49Z,42.805,6.029,13.3038,4.60074,2470.637,2022-6-22T06:51:33Z
2022-06-22T04:52:52Z,42.805,6.029,13.3032,4.60088,2470.646,2022-6-22T06:54:36Z
2022-06-22T04:55:55Z,42.805,6.029,13.3027,4.60095,2470.614,2022-6-22T06:57:39Z
2022-06-22T04:58:58Z,42.805,6.029,13.3052,4.60068,2470.614,2022-6-22T07:00:43Z
2022-06-22T05:02:02Z,42.805,6.029,13.3042,4.60093,2470.6,2022-6-22T07:03:46Z
2022-06-22T05:05:05Z,42.805,6.029,13.3051,4.60090,2470.624,2022-6-22T07:06:49Z
2022-06-22T05:08:08Z,42.805,6.029,13.3075,4.60081,2470.577,2022-6-22T07:09:52Z
2022-06-22T05:11:11Z,42.805,6.029,13.3035,4.60102,2470.614,2022-6-22T07:12:55Z
2022-06-22T05:14:14Z,42.805,6.029,13.3054,4.60076,2470.6,2022-6-22T07:15:58Z
2022-06-22T05:17:17Z,42.805,6.029,13.3036,4.60067,2470.614,2022-6-22T07:19:01Z
2022-06-22T05:20:20Z,42.805,6.029,13.3037,4.60095,2470.614,2022-6-22T07:22:04Z
2022-06-22T05:23:23Z,42.805,6.029,13.3038,4.60080,2470.624,2022-6-22T07:25:08Z
2022-06-22T05:26:27Z,42.805,6.029,13.3039,4.60057,2470.567,2022-6-22T07:28:11Z
2022-06-22T05:29:30Z,42.805,6.029,13.3073,4.60067,2470.614,2022-6-22T07:31:14Z
2022-06-22T05:32:33Z,42.805,6.029,13.3053,4.60081,2470.614,2022-6-22T07:34:17Z
2022-06-22T05:35:36Z,42.805,6.029,13.3045,4.60097,2470.6,2022-6-22T07:37:20Z
2022-06-22T05:38:39Z,42.805,6.029,13.3033,4.60064,2470.591,2022-6-22T07:40:23Z
2022-06-22T05:41:42Z,42.805,6.029,13.3051,4.60068,2470.553,2022-6-22T07:43:26Z
2022-06-22T05:44:45Z,42.805,6.029,13.3051,4.60080,2470.567,2022-6-22T07:46:29Z
2022-06-22T05:47:48Z,42.805,6.029,13.3037,4.60072,2470.567,2022-6-22T07:49:33Z
2022-06-22T05:50:52Z,42.805,6.029,13.3053,4.60073,2470.577,2022-6-22T07:52:36Z
2022-06-22T05:53:55Z,42.805,6.029,13.3040,4.60074,2470.567,2022-6-22T07:55:39Z
2022-06-22T05:56:58Z,42.805,6.029,13.3045,4.60075,2470.6,2022-6-22T07:58:42Z
2022-06-22T06:00:01Z,42.805,6.029,13.3051,4.60063,2470.577,2022-6-22T08:01:45Z
2022-06-22T06:03:04Z,42.805,6.029,13.3058,4.60072,2470.591,2022-6-22T08:04:48Z
2022-06-22T06:06:07Z,42.805,6.029,13.3048,4.60069,2470.577,2022-6-22T08:07:51Z
2022-06-22T06:09:10Z,42.805,6.029,13.3054,4.60084,2470.577,2022-6-22T08:10:54Z
2022-06-22T06:12:13Z,42.805,6.029,13.3039,4.60077,2470.567,2022-6-22T08:13:57Z
2022-06-22T06:15:16Z,42.805,6.029,13.3051,4.60064,2470.614,2022-6-22T08:17:01Z
2022-06-22T06:18:20Z,42.805,6.029,13.3065,4.60064,2470.577,2022-6-22T08:20:04Z
2022-06-22T06:21:23Z,42.805,6.029,13.3049,4.60093,2470.553,2022-6-22T08:23:07Z
2022-06-22T06:24:26Z,42.805,6.029,13.3057,4.60077,2470.553,2022-6-22T08:26:10Z
2022-06-22T06:27:29Z,42.805,6.029,13.3055,4.60101,2470.614,2022-6-22T08:29:13Z
2022-06-22T06:30:32Z,42.805,6.029,13.3044,4.60079,2470.553,2022-6-22T08:32:16Z
2022-06-22T06:33:35Z,42.805,6.029,13.3046,4.60082,2470.577,2022-6-22T08:35:19Z
2022-06-22T06:36:39Z,42.805,6.029,13.3030,4.60080,2470.577,2022-6-22T08:38:23Z
2022-06-22T06:39:42Z,42.805,6.029,13.3063,4.60070,2470.553,2022-6-22T08:41:26Z
2022-06-22T06:42:45Z,42.805,6.029,13.3046,4.60081,2470.591,2022-6-22T08:44:29Z
2022-06-22T06:45:48Z,42.805,6.029,13.3045,4.60072,2470.553,2022-6-22T08:47:33Z
2022-06-22T06:48:52Z,42.805,6.029,13.3043,4.60072,2470.553,2022-6-22T08:50:36Z
2022-06-22T06:51:55Z,42.805,6.029,13.3057,4.60079,2470.577,2022-6-22T08:53:39Z
2022-06-22T06:54:58Z,42.805,6.029,13.3046,4.60089,2470.591,2022-6-22T08:56:42Z
2022-06-22T06:58:01Z,42.805,6.029,13.3056,4.60076,2470.577,2022-6-22T08:59:45Z
2022-06-22T07:01:04Z,42.805,6.029,13.3052,4.60081,2470.567,2022-6-22T09:02:48Z
2022-06-22T07:04:07Z,42.805,6.029,13.3072,4.60081,2470.6,2022-6-22T09:05:51Z
2022-06-22T07:07:10Z,42.805,6.029,13.3055,4.60094,2470.567,2022-6-22T09:08:54Z
2022-06-22T07:10:13Z,42.805,6.029,13.3053,4.60077,2470.544,2022-6-22T09:11:57Z
2022-06-22T07:13:17Z,42.805,6.029,13.3089,4.60076,2470.507,2022-6-22T09:15:01Z
2022-06-22T07:16:20Z,42.805,6.029,13.3079,4.60072,2470.567,2022-6-22T09:18:04Z
2022-06-22T07:19:23Z,42.805,6.029,13.3056,4.60087,2470.544,2022-6-22T09:21:07Z
2022-06-22T07:22:26Z,42.805,6.029,13.3055,4.60084,2470.544,2022-6-22T09:24:10Z
2022-06-22T07:25:29Z,42.805,6.029,13.3065,4.60065,2470.53,2022-6-22T09:27:13Z
2022-06-22T07:28:32Z,42.805,6.029,13.3046,4.60078,2470.591,2022-6-22T09:30:16Z
2022-06-22T07:31:35Z,42.805,6.029,13.3053,4.60104,2470.567,2022-6-22T09:33:19Z
2022-06-22T07:34:38Z,42.805,6.029,13.3045,4.60087,2470.567,2022-6-22T09:36:22Z
2022-06-22T07:37:41Z,42.805,6.029,13.3056,4.60084,2470.553,2022-6-22T09:39:26Z
2022-06-22T07:40:45Z,42.805,6.029,13.3067,4.60102,2470.591,2022-6-22T09:42:29Z
2022-06-22T07:43:48Z,42.805,6.029,13.3056,4.60084,2470.507,2022-6-22T09:45:32Z
2022-06-22T07:46:51Z,42.805,6.029,13.3023,4.60112,2470.553,2022-6-22T09:48:35Z
2022-06-22T07:49:54Z,42.805,6.029,13.3039,4.60072,2470.544,2022-6-22T09:51:38Z
2022-06-22T07:52:57Z,42.805,6.029,13.3036,4.60078,2470.52,2022-6-22T09:54:41Z
2022-06-22T07:56:00Z,42.805,6.029,13.3039,4.60057,2470.53,2022-6-22T09:57:44Z
2022-06-22T07:59:03Z,42.805,6.029,13.3066,4.60074,2470.544,2022-6-22T10:00:47Z
2022-06-22T08:02:06Z,42.805,6.029,13.3025,4.60087,2470.553,2022-6-22T10:03:51Z
2022-06-22T08:05:10Z,42.805,6.029,13.3065,4.60061,2470.567,2022-6-22T10:06:54Z
2022-06-22T08:08:13Z,42.805,6.029,13.3057,4.60074,2470.53,2022-6-22T10:09:57Z
2022-06-22T08:11:16Z,42.805,6.029,13.3064,4.60122,2470.567,2022-6-22T10:13:00Z
2022-06-22T08:14:19Z,42.805,6.029,13.3031,4.60068,2470.507,2022-6-22T10:16:03Z
2022-06-22T08:17:22Z,42.805,6.029,13.3043,4.60084,2470.507,2022-6-22T10:19:06Z
2022-06-22T08:20:25Z,42.805,6.029,13.3057,4.60079,2470.497,2022-6-22T10:22:09Z
2022-06-22T08:23:28Z,42.805,6.029,13.3055,4.60067,2470.507,2022-6-22T10:25:12Z
2022-06-22T08:26:31Z,42.805,6.029,13.3046,4.60089,2470.497,2022-6-22T10:28:16Z
2022-06-22T08:29:35Z,42.805,6.029,13.3048,4.60063,2470.544,2022-6-22T10:31:19Z
2022-06-22T08:32:38Z,42.805,6.029,13.3072,4.60074,2470.52,2022-6-22T10:34:22Z
2022-06-22T08:35:41Z,42.805,6.029,13.3039,4.60069,2470.53,2022-6-22T10:37:25Z
2022-06-22T08:38:44Z,42.805,6.029,13.3043,4.60057,2470.507,2022-6-22T10:40:28Z
2022-06-22T08:41:47Z,42.805,6.029,13.3034,4.60059,2470.507,2022-6-22T10:43:31Z
2022-06-22T08:44:50Z,42.805,6.029,13.3036,4.60111,2470.53,2022-6-22T10:46:34Z
2022-06-22T08:47:53Z,42.805,6.029,13.3052,4.60072,2470.544,2022-6-22T10:49:37Z
2022-06-22T08:50:56Z,42.805,6.029,13.3051,4.60078,2470.507,2022-6-22T10:52:41Z
2022-06-22T08:54:00Z,42.805,6.029,13.3048,4.60083,2470.544,2022-6-22T10:55:44Z
2022-06-22T08:57:03Z,42.805,6.029,13.3046,4.60078,2470.483,2022-6-22T10:58:47Z
2022-06-22T09:00:06Z,42.805,6.029,13.3052,4.60092,2470.553,2022-6-22T11:01:50Z
2022-06-22T09:03:09Z,42.805,6.029,13.3067,4.60082,2470.52,2022-6-22T11:04:53Z
2022-06-22T09:06:12Z,42.805,6.029,13.3062,4.60075,2470.53,2022-6-22T11:07:56Z
2022-06-22T09:09:15Z,42.805,6.029,13.3059,4.60124,2470.567,2022-6-22T11:10:59Z
2022-06-22T09:12:18Z,42.805,6.029,13.3049,4.60110,2470.544,2022-6-22T11:14:02Z
2022-06-22T09:15:21Z,42.805,6.029,13.3066,4.60086,2470.544,2022-6-22T11:17:06Z
2022-06-22T09:18:25Z,42.805,6.029,13.3061,4.60136,2470.52,2022-6-22T11:20:09Z
2022-06-22T09:21:28Z,42.805,6.029,13.3056,4.60094,2470.52,2022-6-22T11:23:12Z
2022-06-22T09:24:31Z,42.805,6.029,13.3066,4.60119,2470.544,2022-6-22T11:26:15Z
2022-06-22T09:27:34Z,42.805,6.029,13.3057,4.60105,2470.52,2022-6-22T11:29:18Z
2022-06-22T09:30:37Z,42.805,6.029,13.3098,4.60062,2470.567,2022-6-22T11:32:21Z
2022-06-22T09:33:40Z,42.805,6.029,13.3046,4.60076,2470.507,2022-6-22T11:35:24Z
2022-06-22T09:36:43Z,42.805,6.029,13.3053,4.60120,2470.497,2022-6-22T11:38:27Z
2022-06-22T09:39:46Z,42.805,6.029,13.3057,4.60068,2470.52,2022-6-22T11:41:31Z
2022-06-22T09:42:50Z,42.805,6.029,13.3052,4.60076,2470.497,2022-6-22T11:44:34Z
2022-06-22T09:45:53Z,42.805,6.029,13.3061,4.60117,2470.507,2022-6-22T11:47:37Z
2022-06-22T09:48:56Z,42.805,6.029,13.3054,4.60084,2470.53,2022-6-22T11:50:40Z
2022-06-22T09:51:59Z,42.805,6.029,13.3079,4.60116,2470.52,2022-6-22T11:53:43Z
2022-06-22T09:55:02Z,42.805,6.029,13.3060,4.60135,2470.507,2022-6-22T11:56:46Z
2022-06-22T09:58:05Z,42.805,6.029,13.3042,4.60099,2470.52,2022-6-22T11:59:49Z
2022-06-22T10:01:08Z,42.805,6.029,13.3050,4.60104,2470.483,2022-6-22T12:02:52Z
2022-06-22T10:04:11Z,42.805,6.029,13.3052,4.60105,2470.544,2022-6-22T12:05:56Z
2022-06-22T10:07:15Z,42.805,6.029,13.3051,4.60099,2470.544,2022-6-22T12:08:59Z
2022-06-22T10:10:18Z,42.805,6.029,13.3059,4.60089,2470.507,2022-6-22T12:12:02Z
2022-06-22T10:13:21Z,42.805,6.029,13.3064,4.60067,2470.507,2022-6-22T12:15:05Z
2022-06-22T10:16:24Z,42.805,6.029,13.3069,4.60071,2470.544,2022-6-22T12:18:08Z
2022-06-22T10:19:27Z,42.805,6.029,13.3063,4.60079,2470.53,2022-6-22T12:21:11Z
2022-06-22T10:22:30Z,42.805,6.029,13.3090,4.60089,2470.553,2022-6-22T12:24:14Z
2022-06-22T10:25:33Z,42.805,6.029,13.3058,4.60093,2470.544,2022-6-22T12:27:17Z
2022-06-22T10:28:36Z,42.805,6.029,13.3062,4.60126,2470.507,2022-6-22T12:30:21Z
2022-06-22T10:31:40Z,42.805,6.029,13.3060,4.60100,2470.53,2022-6-22T12:33:24Z
2022-06-22T10:34:43Z,42.805,6.029,13.3071,4.60131,2470.52,2022-6-22T12:36:27Z
2022-06-22T10:37:46Z,42.805,6.029,13.3062,4.60137,2470.553,2022-6-22T12:39:30Z
2022-06-22T10:40:49Z,42.805,6.029,13.3081,4.60075,2470.52,2022-6-22T12:42:33Z
2022-06-22T10:43:52Z,42.805,6.029,13.3072,4.60092,2470.507,2022-6-22T12:45:36Z
2022-06-22T10:46:55Z,42.805,6.029,13.3082,4.60099,2470.52,2022-6-22T12:48:39Z
2022-06-22T10:49:58Z,42.805,6.029,13.3058,4.60064,2470.567,2022-6-22T12:51:42Z
2022-06-22T10:53:02Z,42.805,6.029,13.3084,4.60097,2470.52,2022-6-22T12:54:46Z
2022-06-22T10:56:05Z,42.805,6.029,13.3058,4.60103,2470.507,2022-6-22T12:57:49Z
2022-06-22T10:59:08Z,42.805,6.029,13.3034,4.60109,2470.553,2022-6-22T13:00:52Z
2022-06-22T11:02:11Z,42.805,6.029,13.3045,4.60077,2470.52,2022-6-22T13:03:55Z
2022-06-22T11:05:14Z,42.805,6.029,13.3055,4.60102,2470.553,2022-6-22T13:06:58Z
2022-06-22T11:08:17Z,42.805,6.029,13.3051,4.60105,2470.567,2022-6-22T13:10:01Z
2022-06-22T11:11:20Z,42.805,6.029,13.3034,4.60102,2470.553,2022-6-22T13:13:04Z
2022-06-22T11:14:23Z,42.805,6.029,13.3067,4.60092,2470.544,2022-6-22T13:16:07Z
2022-06-22T11:17:27Z,42.805,6.029,13.3058,4.60076,2470.544,2022-6-22T13:19:11Z
2022-06-22T11:20:30Z,42.805,6.029,13.3076,4.60087,2470.567,2022-6-22T13:22:14Z
2022-06-22T11:23:33Z,42.805,6.029,13.3076,4.60080,2470.567,2022-6-22T13:25:17Z
2022-06-22T11:26:36Z,42.805,6.029,13.3079,4.60125,2470.53,2022-6-22T13:28:20Z
2022-06-22T11:29:39Z,42.805,6.029,13.3073,4.60134,2470.52,2022-6-22T13:31:23Z
2022-06-22T11:32:42Z,42.805,6.029,13.3066,4.60063,2470.567,2022-6-22T13:34:26Z
2022-06-22T11:35:45Z,42.805,6.029,13.3080,4.60073,2470.544,2022-6-22T13:37:29Z
2022-06-22T11:38:48Z,42.805,6.029,13.3048,4.60090,2470.577,2022-6-22T13:40:32Z
2022-06-22T11:41:52Z,42.805,6.029,13.3048,4.60078,2470.567,2022-6-22T13:43:36Z
2022-06-22T11:44:55Z,42.805,6.029,13.3043,4.60074,2470.567,2022-6-22T13:46:39Z
2022-06-22T11:47:58Z,42.805,6.029,13.3047,4.60094,2470.53,2022-6-22T13:49:42Z
2022-06-22T11:51:01Z,42.805,6.029,13.3046,4.60102,2470.567,2022-6-22T13:52:45Z
2022-06-22T11:54:04Z,42.805,6.029,13.3058,4.60076,2470.567,2022-6-22T13:55:48Z
2022-06-22T11:57:07Z,42.805,6.029,13.3048,4.60132,2470.53,2022-6-22T13:58:51Z
2022-06-22T12:00:10Z,42.805,6.029,13.3061,4.60070,2470.567,2022-6-22T14:01:54Z
2022-06-22T12:03:13Z,42.805,6.029,13.3043,4.60117,2470.567,2022-6-22T14:04:58Z
2022-06-22T12:06:17Z,42.805,6.029,13.3071,4.60074,2470.577,2022-6-22T14:08:01Z
2022-06-22T12:09:20Z,42.805,6.029,13.3060,4.60057,2470.591,2022-6-22T14:11:04Z
2022-06-22T12:12:23Z,42.805,6.029,13.3051,4.60068,2470.553,2022-6-22T14:14:07Z
2022-06-22T12:15:26Z,42.805,6.029,13.3048,4.60074,2470.567,2022-6-22T14:17:10Z
2022-06-22T12:18:29Z,42.805,6.029,13.3056,4.60078,2470.53,2022-6-22T14:20:13Z
2022-06-22T12:21:32Z,42.805,6.029,13.3047,4.60069,2470.553,2022-6-22T14:23:16Z
2022-06-22T12:24:35Z,42.805,6.029,13.3047,4.60114,2470.577,2022-6-22T14:26:19Z
2022-06-22T12:27:38Z,42.805,6.029,13.3054,4.60087,2470.567,2022-6-22T14:29:23Z
2022-06-22T12:30:42Z,42.805,6.029,13.3054,4.60077,2470.577,2022-6-22T14:32:26Z
2022-06-22T12:33:45Z,42.805,6.029,13.3063,4.60062,2470.591,2022-6-22T14:35:29Z
2022-06-22T12:36:48Z,42.805,6.029,13.3036,4.60078,2470.614,2022-6-22T14:38:32Z
2022-06-22T12:39:51Z,42.805,6.029,13.3048,4.60078,2470.577,2022-6-22T14:41:35Z
2022-06-22T12:42:54Z,42.805,6.029,13.3067,4.60077,2470.591,2022-6-22T14:44:38Z
2022-06-22T12:45:57Z,42.805,6.029,13.3033,4.60094,2470.553,2022-6-22T14:47:41Z
2022-06-22T12:49:00Z,42.805,6.029,13.3039,4.60096,2470.591,2022-6-22T14:50:44Z
2022-06-22T12:52:03Z,42.805,6.029,13.3033,4.60106,2470.6,2022-6-22T14:53:48Z
2022-06-22T12:55:07Z,42.805,6.029,13.3046,4.60109,2470.591,2022-6-22T14:56:51Z
2022-06-22T12:58:10Z,42.805,6.029,13.3047,4.60096,2470.577,2022-6-22T14:59:54Z
2022-06-22T13:01:13Z,42.805,6.029,13.3043,4.60089,2470.577,2022-6-22T15:02:57Z
2022-06-22T13:04:16Z,42.805,6.029,13.3079,4.60068,2470.591,2022-6-22T15:06:00Z
2022-06-22T13:07:19Z,42.805,6.029,13.3052,4.60054,2470.614,2022-6-22T15:09:03Z
2022-06-22T13:10:22Z,42.805,6.029,13.3041,4.60144,2470.577,2022-6-22T15:12:06Z
2022-06-22T13:13:25Z,42.805,6.029,13.3036,4.60076,2470.6,2022-6-22T15:15:09Z
2022-06-22T13:16:28Z,42.805,6.029,13.3043,4.60069,2470.6,2022-6-22T15:18:13Z
2022-06-22T13:19:32Z,42.805,6.029,13.3042,4.60087,2470.614,2022-6-22T15:21:16Z
2022-06-22T13:22:35Z,42.805,6.029,13.3034,4.60112,2470.637,2022-6-22T15:24:19Z
2022-06-22T13:25:38Z,42.805,6.029,13.3055,4.60115,2470.577,2022-6-22T15:27:22Z
2022-06-22T13:28:41Z,42.805,6.029,13.3057,4.60077,2470.577,2022-6-22T15:30:25Z
2022-06-22T13:31:44Z,42.805,6.029,13.3029,4.60102,2470.591,2022-6-22T15:33:28Z
2022-06-22T13:34:47Z,42.805,6.029,13.3060,4.60102,2470.614,2022-6-22T15:36:31Z
2022-06-22T13:37:50Z,42.805,6.029,13.3057,4.60094,2470.591,2022-6-22T15:39:34Z
2022-06-22T13:40:53Z,42.805,6.029,13.3051,4.60095,2470.614,2022-6-22T15:42:38Z
2022-06-22T13:43:57Z,42.805,6.029,13.3075,4.60092,2470.6,2022-6-22T15:45:41Z
2022-06-22T13:47:00Z,42.805,6.029,13.3082,4.60096,2470.591,2022-6-22T15:48:44Z
2022-06-22T13:50:03Z,42.805,6.029,13.3076,4.60091,2470.624,2022-6-22T15:51:47Z
2022-06-22T13:53:06Z,42.805,6.029,13.3087,4.60093,2470.591,2022-6-22T15:54:50Z
2022-06-22T13:56:09Z,42.805,6.029,13.3060,4.60125,2470.577,2022-6-22T15:57:53Z
2022-06-22T13:59:12Z,42.805,6.029,13.3079,4.60103,2470.591,2022-6-22T16:00:56Z
2022-06-22T14:02:15Z,42.805,6.029,13.3083,4.60085,2470.6,2022-6-22T16:03:59Z
2022-06-22T14:05:18Z,42.805,6.029,13.3084,4.60102,2470.614,2022-6-22T16:07:03Z
2022-06-22T14:08:22Z,42.805,6.029,13.3088,4.60097,2470.591,2022-6-22T16:10:06Z
2022-06-22T14:11:25Z,42.805,6.029,13.3091,4.60094,2470.6,2022-6-22T16:13:09Z
2022-06-22T14:14:28Z,42.805,6.029,13.3081,4.60088,2470.577,2022-6-22T16:16:12Z
2022-06-22T14:17:31Z,42.805,6.029,13.3057,4.60115,2470.6,2022-6-22T16:19:15Z
2022-06-22T14:20:34Z,42.805,6.029,13.3076,4.60119,2470.591,2022-6-22T16:22:18Z
2022-06-22T14:23:37Z,42.805,6.029,13.3067,4.60104,2470.591,2022-6-22T16:25:21Z
2022-06-22T14:26:40Z,42.805,6.029,13.3055,4.60087,2470.577,2022-6-22T16:28:25Z
2022-06-22T14:29:44Z,42.805,6.029,13.3051,4.60126,2470.577,2022-6-22T16:31:28Z
2022-06-22T14:32:47Z,42.805,6.029,13.3052,4.60065,2470.624,2022-6-22T16:34:31Z
2022-06-22T14:35:50Z,42.805,6.029,13.3051,4.60074,2470.614,2022-6-22T16:37:34Z
2022-06-22T14:38:53Z,42.805,6.029,13.3044,4.60095,2470.591,2022-6-22T16:40:37Z
2022-06-22T14:41:56Z,42.805,6.029,13.3058,4.60084,2470.624,2022-6-22T16:43:40Z
2022-06-22T14:44:59Z,42.805,6.029,13.3055,4.60094,2470.6,2022-6-22T16:46:43Z
2022-06-22T14:48:02Z,42.805,6.029,13.3054,4.60102,2470.624,2022-6-22T16:49:46Z
2022-06-22T14:51:05Z,42.805,6.029,13.3058,4.60103,2470.6,2022-6-22T16:52:50Z
2022-06-22T14:54:09Z,42.805,6.029,13.3048,4.60099,2470.614,2022-6-22T16:55:53Z
2022-06-22T14:57:12Z,42.805,6.029,13.3026,4.60088,2470.577,2022-6-22T16:58:56Z
2022-06-22T15:00:15Z,42.805,6.029,13.3060,4.60097,2470.591,2022-6-22T17:01:59Z
2022-06-22T15:03:18Z,42.805,6.029,13.3046,4.60104,2470.591,2022-6-22T17:05:02Z
2022-06-22T15:06:21Z,42.805,6.029,13.3047,4.60130,2470.6,2022-6-22T17:08:05Z
2022-06-22T15:09:24Z,42.805,6.029,13.3040,4.60089,2470.614,2022-6-22T17:11:08Z
2022-06-22T15:12:27Z,42.805,6.029,13.3048,4.60104,2470.6,2022-6-22T17:14:11Z